Regional Weather Roundup
Issued by NWS Glasgow, MT

Home | Current Version | Previous Version | Text Only | Print | Product List | Glossary On
Versions: 1 2 3 4 5 6 7 8 9 10 11 12 13 14 15 16 17 18 19 20 21 22 23 24 25 26 27
000
ASUS45 KGGW 202315
RWRGGW
HOURLY REGIONAL WEATHER ROUNDUP FOR NORTHEAST MONTANA
NATIONAL WEATHER SERVICE GLASGOW MONTANA
500 PM MDT SUN AUG 20 2017

NOTE: "FAIR" INDICATES FEW OR NO CLOUDS BELOW 12,000 FEET WITH NO
SIGNIFICANT WEATHER AND/OR OBSTRUCTIONS TO VISISBILITY.

NORTHEAST MONTANA


CITY           SKY/WX    TMP DP  RH WIND       PRES   REMARKS
GLASGOW        MOSUNNY   81  37  20 S12       29.89F
PLENTYWOOD       N/A     77  28  16 S8          N/A
WOLF POINT     PTSUNNY   82  36  19 S7        29.92F
JORDAN           N/A     81  35  19 SE8       29.92F
WINNETT          N/A     82  36  19 SW3G12      N/A
SIDNEY         MOSUNNY   74  46  36 S7        29.97
GLENDIVE       CLOUDY    78  40  25 E17       29.96F
MALTA            N/A     82  39  21 W12G20      N/A

FORT PECK REPORTS


CITY           SKY/WX    TMP DP  RH WIND       PRES   REMARKS
FORT PECK        N/A     78  56  46 S12         N/A
THE PINES        N/A     84  34  16 S7          N/A

SOUTHEAST MONTANA


CITY           SKY/WX    TMP DP  RH WIND       PRES   REMARKS
BILLINGS       PTSUNNY   83  40  21 VRB6      29.95F
MILES CITY     SUNNY     87  38  17 E9        29.88F
BAKER          SUNNY     81  38  21 SE20G26   29.98F
LIVINGSTON     CLOUDY    80  23  12 NW15G21   30.02S

CENTRAL MONTANA


CITY           SKY/WX    TMP DP  RH WIND       PRES   REMARKS
HAVRE          CLOUDY    79  24  13 W17G23    29.94S
LEWISTOWN      MOSUNNY   76  31  19 NW7       30.01R
GREAT FALLS    CLOUDY    76  21  12 CALM      29.99F
CUT BANK       PTSUNNY   74  26  16 W14       29.99F
HELENA         CLOUDY    79  26  14 W12       30.02F
BUTTE          CLOUDY    75  24  15 VRB6      30.10F
BOZEMAN        MOSUNNY   77  35  21 NE6       30.04F

WESTERN MONTANA


CITY           SKY/WX    TMP DP  RH WIND       PRES   REMARKS
MISSOULA       PTSUNNY   79  32  18 S6        30.00F
KALISPELL      NOT AVBL

NORTH DAKOTA


CITY           SKY/WX    TMP DP  RH WIND       PRES   REMARKS
WILLISTON      SUNNY     78  37  22 SE10      29.97F
DICKINSON      PTSUNNY   73  46  38 E13       30.01F
MINOT          SUNNY     79  35  20 NW3       29.99S
BISMARCK       PTSUNNY   69  52  54 S7        30.04S

SOUTHERN SASKATCHEWAN


CITY           SKY/WX    TMP DP  RH WIND       PRES   REMARKS
REGINA         PTSUNNY   72  32  23 S3        29.95F
ESTEVAN        CLOUDY    73  32  21 CALM      29.97F
SWIFT CURRENT  CLOUDY    77  36  22 W13       29.86F





USA.gov is the U.S. government's official web portal to all federal, state and local government web resources and services.